GW2259 Weather Reports


Display with metric or nautical units.
time (UTC)temp
F
wind
direction
speed
MPH
gust
MPH
rain 1hr
in
rain 24hr
in
rain mn
in
humidity
%
barometer
mb
20260507083035 55 36 1.0 5.0 0.00 0.38 0.00 93 1017.2
20260507081532 55 51 2.0 3.0 0.00 0.38 0.00 94 1017.0
20260507080032 55 70 1.0 3.0 0.00 0.38 0.00 94 1017.3
20260507074536 55 0 0.0 0.0 0.00 0.38 0.00 95 1017.2
20260507073035 55 0 0.0 0.0 0.00 0.38 0.00 95 1017.0
20260507071537 55 189 1.0 3.0 0.00 0.38 0.00 95 1017.0
20260507070041 55 0 0.0 2.0 0.00 0.38 0.00 94 1016.2
20260507064558 55 62 1.0 3.0 0.00 0.38 0.00 95 1015.7
20260507063041 55 34 1.0 4.0 0.00 0.38 0.00 95 1015.6
20260507061537 55 0 0.0 0.0 0.00 0.38 0.00 95 1015.5
20260507060039 55 0 0.0 0.0 0.00 0.38 0.00 94 1015.6
20260507054535 55 0 0.0 0.0 0.00 0.38 0.00 94 1015.6
20260507053039 56 0 0.0 0.0 0.00 0.38 0.00 94 1015.6
20260507051540 56 0 0.0 0.0 0.00 0.38 0.00 94 1015.6
20260507050041 56 0 0.0 0.0 0.00 0.38 0.00 93 1015.6
20260507044537 56 0 0.0 0.0 0.00 0.38 0.38 93 1015.7
20260507043035 56 99 0.0 1.0 0.00 0.38 0.38 93 1015.7
20260507041535 56 99 0.0 1.0 0.00 0.38 0.38 93 1015.7
20260507040035 57 100 1.0 3.0 0.00 0.38 0.38 92 1015.5
20260507034535 57 100 1.0 2.0 0.00 0.38 0.38 92 1015.4
20260507033037 57 83 1.0 3.0 0.00 0.38 0.38 92 1015.1
20260507031536 57 94 2.0 3.0 0.00 0.38 0.38 92 1015.0
20260507030037 57 94 1.0 2.0 0.00 0.38 0.38 91 1015.1
20260507024537 57 64 0.0 2.0 0.00 0.38 0.38 91 1014.9
20260507023039 58 98 0.0 1.0 0.00 0.38 0.38 90 1014.7
20260507021540 58 0 0.0 4.0 0.00 0.38 0.38 89 1014.1
20260507020048 58 92 3.0 5.0 0.00 0.38 0.38 88 1013.8
20260507014544 59 83 3.0 6.0 0.00 0.38 0.38 87 1013.9
20260507013036 60 65 3.0 7.0 0.00 0.38 0.38 86 1013.7
20260507011538 61 55 2.0 6.0 0.00 0.38 0.38 85 1014.1
20260507010055 61 24 1.0 5.0 0.00 0.38 0.38 85 1013.9
20260507004536 61 323 2.0 6.0 0.00 0.38 0.38 84 1013.8
20260507003040 62 344 2.0 7.0 0.00 0.38 0.38 83 1013.4
20260507001536 62 8 3.0 7.0 0.00 0.38 0.38 82 1013.2
20260507000037 63 53 1.0 7.0 0.00 0.38 0.38 82 1013.1
20260506234535 64 27 3.0 7.0 0.00 0.38 0.38 79 1012.6
20260506233035 65 77 3.0 8.0 0.00 0.38 0.38 77 1012.5
20260506231546 65 39 2.0 8.0 0.00 0.38 0.38 77 1012.7
20260506230055 65 45 3.0 6.0 0.00 0.38 0.38 78 1012.6
20260506224539 66 20 3.0 7.0 0.00 0.38 0.38 76 1012.5
20260506223037 66 6 3.0 7.0 0.00 0.38 0.38 76 1012.6
20260506221538 66 27 3.0 8.0 0.00 0.38 0.38 76 1012.4
20260506220045 67 23 2.0 7.0 0.00 0.38 0.38 73 1012.7
20260506214539 65 26 3.0 8.0 0.00 0.38 0.38 78 1012.7
20260506213039 63 11 2.0 7.0 0.00 0.38 0.38 80 1013.1
20260506211535 62 28 1.0 9.0 0.00 0.38 0.38 85 1013.1
20260506210034 61 18 5.0 9.0 0.00 0.38 0.38 86 1012.9
20260506204538 59 53 4.0 7.0 0.00 0.38 0.38 92 1013.3
20260506203033 58 359 3.0 9.0 0.00 0.38 0.38 94 1013.6
20260506201539 57 307 4.0 8.0 0.00 0.38 0.38 94 1013.8
20260506200037 56 316 4.0 12.0 0.00 0.38 0.38 94 1014.0
20260506194532 55 338 5.0 8.0 0.00 0.38 0.38 94 1013.8
20260506193034 55 8 5.0 11.0 0.00 0.38 0.38 94 1014.1
20260506191536 55 338 6.0 11.0 0.00 0.38 0.38 94 1014.0
20260506190036 55 4 6.0 12.0 0.00 0.38 0.38 95 1014.3
20260506184542 54 319 5.0 11.0 0.00 0.38 0.38 95 1014.4
20260506183040 54 302 6.0 12.0 0.00 0.38 0.38 95 1014.6
20260506181531 54 311 6.0 10.0 0.00 0.38 0.38 95 1014.6
20260506180040 54 343 5.0 10.0 0.00 0.38 0.38 95 1014.6
20260506174537 54 328 5.0 9.0 0.00 0.38 0.38 95 1014.6
20260506173039 54 359 6.0 11.0 0.00 0.38 0.38 95 1014.9
20260506171553 54 352 4.0 9.0 0.00 0.38 0.38 95 1014.3
20260506170043 54 53 5.0 11.0 0.00 0.38 0.38 95 1014.1
20260506164536 54 2 6.0 11.0 0.00 0.38 0.38 94 1014.2
20260506163035 55 319 4.0 14.0 0.00 0.38 0.38 95 1013.6
20260506161537 55 320 4.0 9.0 0.01 0.38 0.38 95 1013.8
20260506160039 54 317 4.0 8.0 0.01 0.38 0.38 95 1013.5
20260506154540 55 46 3.0 8.0 0.01 0.38 0.38 95 1013.1
20260506153035 54 13 1.0 7.0 0.01 0.38 0.38 95 1013.5
20260506151540 54 27 4.0 10.0 0.00 0.37 0.37 95 1013.1
20260506150033 53 356 5.0 12.0 0.02 0.37 0.37 95 1013.1
20260506144546 53 323 4.0 9.0 0.04 0.37 0.37 95 1012.9
20260506143037 53 47 6.0 11.0 0.20 0.37 0.37 95 1011.7
20260506141532 52 53 6.0 10.0 0.34 0.37 0.37 95 1012.2
20260506140036 52 103 8.0 13.0 0.35 0.35 0.35 94 1012.7
20260506134536 53 358 7.0 15.0 0.33 0.33 0.33 94 1012.7
20260506133034 54 20 7.0 13.0 0.15 0.15 0.15 93 1012.9
20260506131543 55 18 6.0 19.0 0.03 0.03 0.03 92 1013.0
20260506130035 57 5 8.0 15.0 0.00 0.00 0.00 87 1010.5
20260506124536 58 58 6.0 12.0 0.00 0.00 0.00 85 1010.7
20260506123035 59 37 6.0 9.0 0.00 0.00 0.00 84 1010.9
20260506121534 59 30 3.0 7.0 0.00 0.00 0.00 85 1010.3
20260506120039 60 25 4.0 11.0 0.00 0.00 0.00 84 1010.2
20260506114538 60 32 1.0 7.0 0.00 0.00 0.00 84 1010.3
20260506113033 61 1 3.0 6.0 0.00 0.00 0.00 84 1010.1
20260506111533 61 8 2.0 8.0 0.00 0.00 0.00 84 1010.0
20260506110038 62 17 2.0 6.0 0.00 0.00 0.00 83 1010.1
20260506104537 62 347 4.0 7.0 0.00 0.00 0.00 83 1010.2
20260506103035 62 321 1.0 4.0 0.00 0.00 0.00 83 1010.1
20260506101534 63 15 1.0 6.0 0.00 0.00 0.00 83 1009.8
20260506100032 63 6 3.0 5.0 0.00 0.00 0.00 82 1009.7
20260506094536 64 335 1.0 3.0 0.00 0.00 0.00 84 1009.7
20260506093036 64 11 1.0 3.0 0.00 0.00 0.00 84 1009.5
20260506091536 64 8 1.0 2.0 0.00 0.00 0.00 83 1009.2
20260506090035 64 14 1.0 3.0 0.00 0.00 0.00 84 1009.0
20260506084540 64 337 1.0 3.0 0.00 0.00 0.00 84 1009.1